Погода в Мехамне

Норвегия     71°02′18″N   27°51′08″E
темп.,
°C
ветер,
м/с
пор.,
м/с
влажн.,
%
обл.,
%
осадки,
мм/ч
давл.,
гПа
погр.,
м
7 августа, вс
вс723:00+10вюв71078100 0.0 1004350
02:00+8в61091100 1.6 1004565
05:00+8св81292100 3.4 1001927
08:00+8св111492100 9.9 10011099
11:00+8ссв91288100 2.9 10011049
14:00+8ссз8989100 4.1 10021001
17:00+8зсз101193100 2.9 1004996
20:00+9сз91193100 6.3 1004749
8 августа, пн
пн823:00+9сз91291100 2.9 1006809
02:00+9сз101391100 5.1 1007822
05:00+9сз101392100 0.9 1010877
08:00+10сз9118471 1.4 1012836
11:00+10зсз9118367 0.6 1014900
14:00+10зсз9128598 1.3 1016986
17:00+10з91282100 0.4 1018948
20:00+10з91285100 0.4 1018809
9 августа, вт
вт923:00+10з8128696 0.2 1019628
02:00+9з81188100 0.4 1019598
05:00+10зюз61081100 0.0 1019515
08:00+11ююз4570100 0.0 1018331
11:00+14ююз6860100 0.0 1016525
14:00+14юз6960100 0.0 1015664
17:00+12з91479100 0.1 1017975
20:00+11з9138224 0.1 1017816
10 августа, ср
ср1023:00+10з81286100 0.1 1017439
02:00+10юз598293 0.1 1016279
05:00+10ю458461 0.0 1014112
08:00+13юв5871100 0.0 1012356
11:00+14ююв6972100 0.0 1009419
14:00+14ю71073100 0.0 1006707
17:00+16юз5968100 0.1 1004781
20:00+13зюз3485100 0.2 1003103
11 августа, чт
чт1123:00+12ю119391 1.6 100250
02:00+12ююв3492100 1.8 99989
05:00+13ююз5882100 0.1 996279
08:00+13юз51087100 0.7 995397
11:00+12з9159198 0.8 995824
14:00+11з12178976 2.8 996945
17:00+11зюз141994100 2.1 9961083
20:00+10з162191100 4.4 9971284